Tracking 28790 objects as of 19-Apr-2024
HD Live streaming from Space Station
objects crossing your sky now

FENGYUN 1C DEB

Track FENGYUN 1C DEB now!
10-day predictions


NORAD ID: 30570
Int'l Code: 1999-025ALL
Perigee: 831.1 km
Apogee: 885.6 km
Inclination: 98.8 °
Period: 102.0 minutes
Semi major axis: 7229 km
RCS: 0.044 m2 (small)
Launch date: May 10, 1999
Source: People's Republic of China (PRC)
Launch site: Taiyaun Space Center, China (TSC)

Note: This is SATELLITE DEBRIS
Your satellite tracking list
Your tracking list is empty




NASA's NSSDC Master Catalog

Two Line Element Set (TLE):
1 30570U 99025ALL 24110.06634170  .00002173  00000-0  11937-2 0  9991
2 30570  98.7785 149.8272 0037699 128.4560 294.9231 14.12400288884824
Source of the keplerian elements: AFSPC